KD8OUK Weather Reports


time (UTC)temp
C
wind
direction
speed
KPH
gust
KPH
rain 1hr
cm
rain 24hr
cm
rain mn
cm
humidity
%
barometer
mb
20260508231021 12 270 1.6 6.4 0.00 0.10 0.10 96 1010.4
20260508230531 12 90 0.0 1.6 0.00 0.10 0.10 96 1010.4
20260508230023 12 90 1.6 4.8 0.00 0.10 0.10 96 1010.5
20260508225515 12 90 1.6 4.8 0.00 0.10 0.10 96 1010.5
20260508225025 12 239 1.6 4.8 0.00 0.10 0.10 96 1010.6
20260508224518 12 258 0.0 3.2 0.00 0.10 0.10 96 1010.7
20260508224029 12 264 3.2 6.4 0.00 0.10 0.10 95 1010.7
20260508223534 13 293 1.6 6.4 0.00 0.10 0.10 93 1010.6
20260508223025 13 158 0.0 3.2 0.00 0.10 0.10 93 1010.6
20260508222517 13 176 3.2 6.4 0.00 0.10 0.10 92 1010.6
20260508222027 13 43 1.6 8.0 0.00 0.10 0.10 91 1010.7
20260508221520 13 185 3.2 6.4 0.00 0.10 0.10 91 1010.7
20260508221030 13 316 3.2 6.4 0.00 0.10 0.10 90 1010.7
20260508220522 13 264 4.8 8.0 0.00 0.10 0.10 88 1010.7
20260508220032 13 288 8.0 16.1 0.00 0.10 0.10 86 1010.5
20260508215524 14 316 6.4 12.9 0.00 0.10 0.10 81 1010.5
20260508215017 15 296 4.8 6.4 0.00 0.10 0.10 78 1010.4
20260508214527 15 282 4.8 8.0 0.00 0.10 0.10 77 1010.4
20260508214019 15 253 8.0 12.9 0.00 0.10 0.10 71 1010.4
20260508213523 16 280 11.3 14.5 0.00 0.10 0.10 60 1010.2
20260508213021 16 264 17.7 24.1 0.00 0.10 0.10 60 1010.2
20260508212520 16 260 16.1 29.0 0.00 0.10 0.10 60 1010.2
20260508212018 16 265 14.5 24.1 0.00 0.10 0.10 61 1010.2
20260508211515 16 270 12.9 20.9 0.00 0.10 0.10 61 1010.1
20260508211026 16 271 16.1 32.2 0.00 0.10 0.10 59 1010.0
20260508210518 17 245 17.7 25.7 0.00 0.10 0.10 58 1010.0
20260508210028 17 244 14.5 20.9 0.00 0.10 0.10 58 1009.9
20260508205520 17 260 12.9 20.9 0.00 0.10 0.10 57 1009.9
20260508205031 17 253 17.7 27.4 0.00 0.10 0.10 56 1009.9
20260508204523 18 261 12.9 22.5 0.00 0.10 0.10 55 1009.9
20260508204033 18 257 14.5 24.1 0.00 0.10 0.10 53 1009.9
20260508203525 18 252 17.7 29.0 0.00 0.10 0.10 53 1010.0
20260508203017 18 251 17.7 22.5 0.00 0.10 0.10 53 1010.0
20260508202527 18 262 12.9 20.9 0.00 0.10 0.10 54 1010.2
20260508202019 18 242 11.3 16.1 0.00 0.10 0.10 54 1010.3
20260508201530 18 251 14.5 24.1 0.00 0.10 0.10 53 1010.3
20260508201022 18 237 12.9 19.3 0.00 0.10 0.10 53 1010.5
20260508200532 18 262 12.9 19.3 0.00 0.10 0.10 53 1010.5
20260508200024 18 263 9.7 12.9 0.00 0.10 0.10 54 1010.6
20260508195516 17 278 12.9 14.5 0.00 0.10 0.10 53 1010.6
20260508195027 17 247 14.5 14.5 0.00 0.10 0.10 53 1010.7
20260508194518 17 263 12.9 17.7 0.00 0.10 0.10 55 1010.8
20260508194029 17 268 12.9 19.3 0.00 0.10 0.10 55 1010.8
20260508193521 17 264 14.5 17.7 0.00 0.10 0.10 55 1011.0
20260508193031 17 275 12.9 20.9 0.00 0.10 0.10 55 1011.0
20260508192523 17 257 14.5 22.5 0.00 0.10 0.10 55 1011.1
20260508192015 17 260 11.3 16.1 0.00 0.10 0.10 55 1011.1
20260508191526 17 242 11.3 17.7 0.00 0.10 0.10 54 1011.1
20260508191016 17 263 16.1 20.9 0.00 0.10 0.10 55 1011.4
20260508190526 18 283 14.5 20.9 0.00 0.10 0.10 56 1011.4
20260508190018 18 251 12.9 16.1 0.00 0.10 0.10 55 1011.4
20260508185522 18 275 12.9 25.7 0.00 0.10 0.10 56 1011.4
20260508185021 18 263 11.3 16.1 0.00 0.10 0.10 56 1011.4
20260508184519 17 259 12.9 17.7 0.00 0.10 0.10 57 1011.3
20260508184018 17 279 11.3 14.5 0.00 0.10 0.10 57 1011.3
20260508183516 17 247 11.3 16.1 0.00 0.10 0.10 57 1011.5
20260508183026 17 253 12.9 24.1 0.00 0.10 0.10 57 1011.5
20260508182518 18 280 16.1 24.1 0.00 0.10 0.10 55 1011.6
20260508182029 18 269 16.1 24.1 0.00 0.10 0.10 55 1011.6
20260508181521 18 275 12.9 19.3 0.00 0.10 0.10 56 1011.7
20260508181030 18 261 16.1 19.3 0.00 0.10 0.10 54 1011.7
20260508180524 18 244 11.3 16.1 0.00 0.10 0.10 53 1011.7
20260508180033 -17 293 14.5 14.5 0.00 0.10 0.10 1012.1
20260508175525 19 264 12.9 24.1 0.00 0.10 0.10 53 1012.1
20260508175017 19 275 11.3 16.1 0.00 0.10 0.10 53 1012.1
20260508174527 20 262 16.1 25.7 0.00 0.10 0.10 53 1012.3
20260508174019 19 276 11.3 14.5 0.00 0.10 0.10 54 1012.3
20260508173530 19 264 12.9 19.3 0.00 0.10 0.10 54 1012.6
20260508173022 18 252 9.7 16.1 0.00 0.10 0.10 55 1012.6
20260508172532 18 248 12.9 17.7 0.00 0.10 0.10 55 1012.8
20260508172024 18 279 12.9 20.9 0.00 0.10 0.10 55 1013.0
20260508171516 18 293 9.7 14.5 0.00 0.10 0.10 56 1013.1
20260508171026 18 263 11.3 17.7 0.00 0.10 0.10 55 1013.4
20260508170518 18 276 14.5 19.3 0.00 0.10 0.10 56 1013.4
20260508170030 18 269 11.3 17.7 0.00 0.10 0.10 55 1013.7
20260508165521 17 271 11.3 19.3 0.00 0.10 0.10 55 1013.8
20260508165031 17 287 11.3 17.7 0.00 0.10 0.10 56 1013.9
20260508164523 17 251 11.3 14.5 0.00 0.10 0.10 56 1014.0
20260508164033 17 259 14.5 24.1 0.00 0.10 0.10 56 1014.0
20260508163525 18 284 14.5 19.3 0.00 0.10 0.10 56 1014.0
20260508163017 17 268 11.3 17.7 0.00 0.10 0.10 57 1014.0
20260508162527 16 281 11.3 17.7 0.00 0.10 0.10 60 1014.0
20260508162020 16 284 12.9 22.5 0.00 0.10 0.10 60 1013.9
20260508161524 15 271 11.3 14.5 0.00 0.10 0.10 61 1014.0
20260508161023 15 276 11.3 16.1 0.00 0.10 0.10 61 1014.0
20260508160520 15 279 11.3 17.7 0.00 0.10 0.10 61 1014.0
20260508160018 15 252 11.3 16.1 0.00 0.10 0.10 62 1014.0
20260508155517 14 262 14.5 22.5 0.00 0.10 0.10 62 1014.0
20260508155016 14 261 12.9 17.7 0.00 0.10 0.10 62 1014.1
20260508154531 14 262 14.5 24.1 0.00 0.10 0.10 62 1014.1
20260508154023 14 274 14.5 20.9 0.00 0.10 0.10 61 1014.1
20260508153516 14 258 12.9 17.7 0.00 0.10 0.10 64 1014.1
20260508153026 13 259 9.7 12.9 0.00 0.10 0.10 65 1014.1
20260508152518 13 280 11.3 14.5 0.00 0.10 0.10 66 1014.2
20260508152028 13 260 11.3 14.5 0.00 0.10 0.10 68 1014.2
20260508151520 13 277 9.7 14.5 0.00 0.10 0.10 68 1014.2
20260508151030 12 254 8.0 11.3 0.00 0.10 0.10 69 1014.1
20260508150522 12 275 11.3 19.3 0.00 0.10 0.10 68 1014.1
20260508150033 12 255 8.0 11.3 0.00 0.10 0.10 69 1014.2
20260508145525 12 263 11.3 16.1 0.00 0.10 0.10 69 1014.2
20260508145017 11 248 8.0 11.3 0.00 0.10 0.10 71 1014.2
20260508144527 11 265 8.0 11.3 0.00 0.10 0.10 71 1014.3
20260508144020 11 256 6.4 9.7 0.00 0.10 0.10 72 1014.3
20260508143529 11 270 8.0 8.0 0.00 0.10 0.10 73 1014.1
20260508143021 10 228 6.4 8.0 0.00 0.10 0.10 72 1014.1
20260508142532 10 245 6.4 11.3 0.00 0.10 0.10 73 1014.2
20260508142023 10 252 6.4 9.7 0.00 0.10 0.10 73 1014.3
20260508141516 10 248 8.0 9.7 0.00 0.10 0.10 72 1014.3
20260508141027 10 264 9.7 11.3 0.00 0.10 0.10 72 1014.3
20260508140518 10 248 9.7 11.3 0.00 0.10 0.10 72 1014.3
20260508140029 10 259 6.4 11.3 0.00 0.10 0.10 72 1014.2
20260508135521 10 252 6.4 11.3 0.00 0.10 0.10 72 1014.2
20260508135031 10 271 9.7 16.1 0.00 0.10 0.10 72 1014.3
20260508134523 10 268 6.4 12.9 0.00 0.10 0.10 71 1014.5
20260508134027 10 265 8.0 11.3 0.00 0.10 0.10 71 1014.5
20260508133525 10 267 6.4 9.7 0.00 0.10 0.10 71 1014.3
20260508133017 10 273 9.7 14.5 0.00 0.10 0.10 70 1014.3
20260508132522 10 256 8.0 12.9 0.00 0.10 0.10 71 1014.3
20260508132020 10 258 8.0 14.5 0.00 0.10 0.10 71 1014.3
20260508131518 10 254 8.0 11.3 0.00 0.10 0.10 71 1014.3
20260508131016 10 280 9.7 12.9 0.00 0.10 0.10 70 1014.3
20260508130532 10 258 6.4 9.7 0.00 0.10 0.10 71 1014.3
20260508130025 10 259 8.0 12.9 0.00 0.10 0.10 71 1014.3
20260508125518 10 258 6.4 9.7 0.00 0.10 0.10 71 1014.3
20260508125027 10 272 8.0 12.9 0.00 0.10 0.10 71 1014.2
20260508124519 10 269 8.0 14.5 0.00 0.10 0.10 72 1014.1
20260508124029 10 264 9.7 14.5 0.00 0.10 0.10 71 1014.1
20260508123522 10 258 9.7 14.5 0.00 0.10 0.10 72 1014.1
20260508123032 10 246 9.7 19.3 0.00 0.10 0.10 72 1014.1
20260508122524 10 268 9.7 12.9 0.00 0.10 0.10 73 1014.1
20260508122016 10 260 8.0 12.9 0.00 0.10 0.10 74 1014.1
20260508121526 10 254 6.4 8.0 0.00 0.10 0.10 74 1014.1
20260508121018 10 234 9.7 14.5 0.00 0.10 0.10 74 1014.0
20260508120529 9 257 6.4 12.9 0.00 0.10 0.10 76 1014.0
20260508120021 9 250 6.4 9.7 0.00 0.10 0.10 76 1014.0
20260508115531 9 238 4.8 8.0 0.00 0.10 0.10 77 1013.9
20260508115023 8 235 4.8 8.0 0.00 0.10 0.10 76 1013.9
20260508114533 8 232 6.4 8.0 0.00 0.10 0.10 77 1013.8
20260508114025 8 241 6.4 9.7 0.00 0.10 0.10 77 1013.8
20260508113517 8 229 4.8 8.0 0.00 0.10 0.10 77 1013.7
20260508113028 8 266 4.8 8.0 0.00 0.10 0.10 77 1013.7
20260508112520 8 245 6.4 9.7 0.00 0.10 0.10 77 1013.7
20260508112030 8 241 3.2 8.0 0.00 0.10 0.10 78 1013.7
20260508111523 8 257 4.8 6.4 0.00 0.10 0.10 78 1013.7
20260508111016 7 253 4.8 6.4 0.00 0.10 0.10 78 1013.6
20260508110525 7 257 4.8 9.7 0.00 0.10 0.10 78 1013.6
20260508110017 7 235 4.8 6.4 0.00 0.10 0.10 78 1013.5
20260508105528 7 251 4.8 8.0 0.00 0.10 0.10 79 1013.5
20260508105020 7 256 3.2 8.0 0.00 0.10 0.10 78 1013.5
20260508104524 7 266 4.8 8.0 0.00 0.10 0.10 78 1013.6
20260508104022 7 243 6.4 9.7 0.00 0.10 0.10 79 1013.6
20260508103522 7 244 4.8 6.4 0.00 0.10 0.10 80 1013.5
20260508103018 7 250 6.4 8.0 0.00 0.10 0.10 79 1013.5
20260508102519 7 254 6.4 8.0 0.00 0.10 0.10 80 1013.6
20260508102015 7 235 4.8 9.7 0.00 0.10 0.10 80 1013.7
20260508101525 7 247 4.8 8.0 0.00 0.10 0.10 81 1013.7
20260508101017 7 273 6.4 9.7 0.00 0.10 0.10 81 1013.6
20260508100527 7 261 4.8 9.7 0.00 0.10 0.10 81 1013.6
20260508100020 7 240 4.8 6.4 0.00 0.10 0.10 81 1013.5
20260508095530 7 258 6.4 9.7 0.00 0.10 0.10 81 1013.5
20260508095022 6 255 4.8 8.0 0.00 0.10 0.10 82 1013.6
20260508094533 6 254 3.2 4.8 0.00 0.10 0.10 82 1013.6
20260508094025 6 245 4.8 8.0 0.00 0.10 0.10 83 1013.6
20260508093517 6 241 4.8 8.0 0.00 0.10 0.10 83 1013.5
20260508093027 6 244 4.8 8.0 0.00 0.10 0.10 84 1013.5
20260508092519 6 238 4.8 9.7 0.00 0.10 0.10 84 1013.5
20260508092032 6 236 3.2 6.4 0.00 0.10 0.10 84 1013.5
20260508091522 6 236 3.2 6.4 0.00 0.10 0.10 85 1013.5
20260508091032 6 230 4.8 8.0 0.00 0.10 0.10 86 1013.5
20260508090524 6 253 3.2 6.4 0.00 0.10 0.10 87 1013.5
20260508090017 6 243 3.2 6.4 0.00 0.10 0.10 88 1013.6
20260508085527 6 239 3.2 6.4 0.00 0.10 0.10 89 1013.6
20260508085019 5 234 3.2 8.0 0.00 0.10 0.10 91 1013.6
20260508084529 5 244 4.8 8.0 0.00 0.10 0.10 92 1013.6
20260508084022 5 251 4.8 8.0 0.00 0.10 0.10 94 1013.6
20260508083531 5 245 3.2 6.4 0.00 0.10 0.10 95 1013.6
20260508083024 5 226 3.2 6.4 0.00 0.10 0.10 95 1013.6
20260508082516 5 222 3.2 9.7 0.00 0.10 0.10 95 1013.6
20260508082026 5 248 0.0 3.2 0.00 0.10 0.10 97 1013.6
20260508081518 5 239 1.6 4.8 0.00 0.10 0.10 97 1013.6
20260508081028 5 223 1.6 4.8 0.00 0.10 0.10 97 1013.6
20260508080515 5 233 1.6 4.8 0.00 0.10 0.10 97 1013.6
20260508080025 5 0.0 0.0 0.00 0.10 0.10 98 1013.8
20260508075517 5 218 1.6 3.2 0.00 0.10 0.10 99 1013.8
20260508075022 5 225 0.0 3.2 0.00 0.10 0.10 99 1013.8
20260508074520 5 0.0 0.0 0.00 0.10 0.10 99 1013.8
20260508074018 5 0.0 0.0 0.00 0.10 0.10 99 1013.8
20260508073516 5 109 1.6 4.8 0.00 0.10 0.10 99 1013.8
20260508073032 5 102 3.2 3.2 0.00 0.10 0.10 99 1013.8
20260508072524 5 96 3.2 4.8 0.00 0.10 0.10 99 1013.9
20260508072017 5 99 3.2 4.8 0.00 0.10 0.10 99 1013.9
20260508071527 5 104 3.2 3.2 0.00 0.10 0.10 99 1013.9
20260508071019 5 102 3.2 3.2 0.00 0.10 0.10 99 1013.9
20260508070529 5 0.0 0.0 0.00 0.10 0.10 99 1013.9
20260508070021 5 0.0 0.0 0.00 0.10 0.10 98 1014.0
20260508065532 5 0.0 0.0 0.00 0.10 0.10 98 1014.0
20260508065024 5 135 0.0 1.6 0.00 0.10 0.10 96 1014.1
20260508064516 5 0.0 0.0 0.00 0.10 0.10 95 1014.1
20260508064026 6 0.0 0.0 0.00 0.10 0.10 95 1014.1
20260508063518 6 0.0 1.6 0.00 0.10 0.10 95 1014.0
20260508063028 6 0.0 0.0 0.00 0.10 0.10 94 1014.0
20260508062521 6 0.0 0.0 0.03 0.10 0.10 94 1014.1
20260508062031 6 215 0.0 3.2 0.05 0.10 0.10 94 1014.1
20260508061523 6 0.0 1.6 0.10 0.10 0.10 95 1014.1
20260508061033 6 180 0.0 3.2 0.10 0.10 0.10 96 1014.1
20260508060525 6 211 0.0 3.2 0.10 0.10 0.10 96 1014.1
20260508060017 6 197 1.6 3.2 0.10 0.10 0.10 96 1014.1
20260508055527 7 176 1.6 4.8 0.10 0.10 0.10 96 1014.1
20260508055019 7 101 0.0 3.2 0.10 0.10 0.10 95 1014.3
20260508054530 7 0.0 0.0 0.10 0.10 0.10 94 1014.5
20260508054022 7 133 3.2 3.2 0.10 0.10 0.10 94 1014.5
20260508053532 7 110 1.6 3.2 0.10 0.10 0.10 92 1015.0
20260508053024 7 192 3.2 8.0 0.10 0.10 0.10 91 1015.0
20260508052517 7 136 6.4 12.9 0.08 0.08 0.08 89 1015.1
20260508052027 8 249 8.0 16.1 0.05 0.05 0.05 89 1015.2
20260508051519 8 231 3.2 6.4 0.00 0.00 0.00 87 1015.2
20260508051023 8 75 4.8 8.0 0.00 0.00 0.00 88 1015.0
20260508050521 8 68 1.6 3.2 0.00 0.00 0.00 88 1015.0
20260508050020 8 56 3.2 4.8 0.00 0.00 0.00 86 1014.5
20260508045518 7 27 3.2 4.8 0.00 0.00 0.00 84 1014.3
20260508045017 7 322 1.6 3.2 0.00 0.00 0.00 82 1014.1
20260508044515 7 0.0 0.0 0.00 0.00 0.00 83 1014.0
20260508044032 7 158 0.0 1.6 0.00 0.00 0.00 84 1014.0
20260508043524 7 0.0 0.0 0.00 0.00 0.00 85 1014.0
20260508043016 7 0.0 0.0 0.00 0.00 0.00 86 1014.0
20260508042528 7 0.0 0.0 0.00 0.00 0.00 88 1014.2
20260508042019 7 0.0 0.0 0.00 0.00 0.00 89 1014.2
20260508041529 7 0.0 0.0 0.00 0.00 0.00 89 1014.3
20260508041022 7 0.0 0.0 0.00 0.00 0.00 90 1014.5
20260508040527 7 0.0 0.0 0.00 0.00 0.00 90 1014.5
20260508040039 7 0.0 0.0 0.00 0.00 0.00 89 1014.5
20260508035523 7 0.0 0.0 0.00 0.00 0.00 89 1014.5
20260508035015 7 0.0 0.0 0.00 0.00 0.00 87 1014.5
20260508034526 7 0.0 0.0 0.00 0.00 0.00 87 1014.5
20260508034018 7 158 0.0 1.6 0.00 0.00 0.00 85 1014.5
20260508033528 7 0.0 0.0 0.00 0.00 0.00 85 1014.5
20260508033020 7 0.0 0.0 0.00 0.00 0.00 87 1014.5
20260508032532 7 158 0.0 1.6 0.00 0.00 0.00 86 1014.5
20260508032023 7 141 1.6 3.2 0.00 0.00 0.00 85 1014.5
20260508031533 7 0.0 0.0 0.00 0.00 0.00 82 1014.5
20260508031025 8 0.0 0.0 0.00 0.00 0.00 81 1014.5
20260508030517 8 0.0 0.0 0.00 0.00 0.00 80 1014.5
20260508030027 8 0.0 0.0 0.00 0.00 0.00 81 1014.4
20260508025520 8 0.0 0.0 0.00 0.00 0.00 81 1014.3
20260508025029 8 0.0 0.0 0.00 0.00 0.00 81 1014.3
20260508024523 8 0.0 0.0 0.00 0.00 0.00 81 1014.3
20260508024033 8 146 0.0 1.6 0.00 0.00 0.00 79 1014.3
20260508023524 8 134 1.6 4.8 0.00 0.00 0.00 79 1014.5
20260508023016 8 112 1.6 3.2 0.00 0.00 0.00 77 1014.5
20260508022527 8 98 3.2 4.8 0.00 0.00 0.00 74 1014.5
20260508022027 8 90 0.0 3.2 0.00 0.00 0.00 74 1014.5
20260508021523 8 0.0 0.0 0.00 0.00 0.00 76 1014.5
20260508021016 8 0.0 0.0 0.00 0.00 0.00 71 1014.3
20260508020519 8 0.0 0.0 0.00 0.00 0.00 71 1014.3
20260508020019 9 0.0 0.0 0.00 0.00 0.00 70 1014.2
20260508015516 9 0.0 0.0 0.00 0.00 0.00 68 1014.2
20260508015020 9 58 0.0 3.2 0.00 0.00 0.00 68 1014.2
20260508014532 10 30 1.6 3.2 0.00 0.00 0.00 68 1014.2
20260508014018 10 209 0.0 3.2 0.00 0.00 0.00 67 1014.2
20260508013527 10 255 1.6 3.2 0.00 0.00 0.00 65 1014.3
20260508013019 10 260 3.2 4.8 0.00 0.00 0.00 64 1014.3
20260508012530 10 264 3.2 8.0 0.00 0.00 0.00 63 1014.2
20260508012022 10 265 4.8 8.0 0.00 0.00 0.00 61 1014.1
20260508011532 10 238 6.4 9.7 0.00 0.00 0.00 61 1014.1
20260508011025 11 246 6.4 9.7 0.00 0.00 0.00 61 1014.2
20260508010516 11 250 3.2 6.4 0.00 0.00 0.00 60 1014.2
20260508010027 11 235 4.8 8.0 0.00 0.00 0.00 60 1014.2
20260508005519 11 242 4.8 8.0 0.00 0.00 0.00 59 1014.2
20260508005029 11 275 4.8 8.0 0.00 0.00 0.00 59 1014.2
20260508004522 11 284 6.4 11.3 0.00 0.00 0.00 58 1014.2
20260508004033 11 260 4.8 9.7 0.00 2.49 0.00 58 1014.2
20260508003524 11 283 4.8 9.7 0.00 2.49 0.00 60 1014.1
20260508003017 11 250 1.6 3.2 0.00 2.49 0.00 59 1014.1
20260508002526 11 259 4.8 8.0 0.00 2.49 0.00 59 1014.1
20260508002019 11 247 3.2 4.8 0.00 2.49 0.00 59 1014.1
20260508001529 11 228 3.2 6.4 0.00 2.49 0.00 58 1014.1
20260508001021 12 225 1.6 3.2 0.00 2.49 0.00 58 1013.9
20260508000531 12 270 3.2 6.4 0.00 2.49 0.00 55 1013.9
20260508000024 12 330 3.2 4.8 0.00 2.49 0.00 55 1013.9
20260507235516 12 277 1.6 4.8 0.00 2.49 0.00 55 1013.9
20260507235026 12 253 4.8 6.4 0.00 2.49 0.00 52 1013.9
20260507234518 12 264 4.8 9.7 0.00 2.49 0.00 52 1013.8
20260507234028 12 237 4.8 6.4 0.00 2.49 0.00 51 1013.8
20260507233520 12 256 4.8 8.0 0.00 2.49 0.00 50 1013.6
20260507233024 13 264 3.2 4.8 0.00 2.49 0.00 48 1013.6
20260507232523 13 250 6.4 11.3 0.00 2.49 0.00 46 1013.7
20260507232021 13 275 6.4 11.3 0.00 2.49 0.00 48 1013.7